Simultaneous Nadir Overpasses (SNOs) Predictions

Prediction of SNOs between AQUA and NPP Satellite Orbit:

Table of predicted SNOs for the next 14.0 days since TLE Epoch: 9/5/2025
Index Date (AQUA) Time (AQUA) Lat,Lon (AQUA) SZA (AQUA ) Date (NPP) Time (NPP) Lat,Lon (NPP) SZA (NPP ) Distance(km) Time Diff (sec)
1 09/08/2025 00:38:26 -81.26, -73.90 99.49 09/08/2025 00:38:29 -81.27, -74.07 99.47 2.93 3
2 09/10/2025 09:19:45 81.27, -23.94 81.34 09/10/2025 09:18:44 81.27, -24.08 81.39 2.45 61
3 09/10/2025 10:09:04 -81.25, 143.32 98.61 09/10/2025 10:09:29 -81.27, 143.39 98.63 1.73 25
4 09/12/2025 18:50:22 81.26,-166.81 82.23 09/12/2025 18:49:44 81.27,-166.71 82.25 1.65 38
5 09/12/2025 19:39:40 -81.26, 0.87 97.76 09/12/2025 19:40:29 -81.26, 0.79 97.77 1.31 49
6 09/15/2025 04:20:57 81.26, 50.67 83.10 09/15/2025 04:20:44 81.27, 50.61 83.12 1.13 13
7 09/15/2025 05:10:15 -81.27,-141.63 96.90 09/15/2025 05:11:28 -81.26,-141.46 96.96 2.88 73
8 09/17/2025 13:02:15 -81.24, 99.98 95.99 09/17/2025 13:01:01 -81.27, 100.03 95.94 3.16 74



Historial Predications of SNOs between AQUA and NPP
